| time (UTC) | temp F | wind direction | speed MPH | gust MPH | rain 1hr in | rain 24hr in | rain mn in | humidity % | barometer mb |
| 20260505022017 | 55 | 0.0 | 0.0 | 0.00 | 0.00 | 0.00 | 77 | 1000.9 | |
| 20260505021017 | 56 | 0.0 | 0.0 | 0.00 | 0.00 | 0.00 | 76 | 1001.0 | |
| 20260505020017 | 57 | 0.0 | 0.0 | 0.00 | 0.00 | 0.00 | 76 | 1001.1 | |
| 20260505015037 | 57 | 0.0 | 0.0 | 0.00 | 0.00 | 0.00 | 74 | 1001.3 | |
| 20260505014017 | 58 | 0.0 | 0.0 | 0.00 | 0.00 | 0.00 | 75 | 1001.3 | |
| 20260505013017 | 58 | 0.0 | 0.0 | 0.00 | 0.00 | 0.00 | 73 | 1001.1 | |
| 20260505012017 | 59 | 0.0 | 0.0 | 0.00 | 0.00 | 0.00 | 70 | 1001.1 | |
| 20260505011017 | 60 | 0.0 | 0.0 | 0.00 | 0.00 | 0.00 | 70 | 1001.0 | |
| 20260505010017 | 60 | 0.0 | 0.0 | 0.00 | 0.00 | 0.00 | 67 | 1000.8 | |
| 20260505005037 | 62 | 0.0 | 0.0 | 0.00 | 0.00 | 0.00 | 61 | 1000.9 | |
| 20260505004017 | 63 | 0.0 | 0.0 | 0.00 | 0.00 | 0.00 | 58 | 1000.9 | |
| 20260505003017 | 65 | 0.0 | 0.0 | 0.00 | 0.00 | 0.00 | 52 | 1000.9 | |
| 20260505002017 | 67 | 0.0 | 0.0 | 0.00 | 0.01 | 0.00 | 45 | 1001.0 | |
| 20260505001017 | 69 | 0.0 | 0.0 | 0.00 | 0.01 | 0.00 | 41 | 1000.9 | |
| 20260505000017 | 70 | 0.0 | 0.0 | 0.00 | 0.01 | 0.00 | 39 | 1001.0 | |
| 20260504235017 | 70 | 0.0 | 0.0 | 0.00 | 0.01 | 0.00 | 38 | 1000.8 | |
| 20260504234017 | 71 | 0.0 | 0.0 | 0.00 | 0.01 | 0.00 | 38 | 1000.8 | |
| 20260504233017 | 74 | 0.0 | 0.0 | 0.00 | 0.01 | 0.00 | 38 | 1000.9 | |
| 20260504232017 | 74 | 0.0 | 0.0 | 0.00 | 0.01 | 0.00 | 33 | 1000.8 | |
| 20260504231017 | 74 | 225 | 1.0 | 7.0 | 0.00 | 0.01 | 0.00 | 36 | 1000.7 |
| 20260504230017 | 74 | 0.0 | 0.0 | 0.00 | 0.01 | 0.00 | 36 | 1000.7 | |
| 20260504225037 | 74 | 203 | 1.0 | 6.0 | 0.00 | 0.01 | 0.00 | 34 | 1000.7 |
| 20260504224017 | 76 | 203 | 1.0 | 8.0 | 0.00 | 0.01 | 0.00 | 33 | 1000.6 |
| 20260504223017 | 76 | 203 | 4.0 | 10.0 | 0.00 | 0.01 | 0.00 | 32 | 1000.6 |
| 20260504222017 | 76 | 203 | 5.0 | 15.0 | 0.00 | 0.01 | 0.00 | 31 | 1000.6 |
| 20260504221017 | 76 | 225 | 1.0 | 6.0 | 0.00 | 0.01 | 0.00 | 32 | 1000.7 |
| 20260504220017 | 76 | 225 | 1.0 | 11.0 | 0.00 | 0.01 | 0.00 | 33 | 1000.8 |
| 20260504215017 | 76 | 225 | 5.0 | 11.0 | 0.00 | 0.01 | 0.00 | 33 | 1000.8 |
| 20260504214017 | 76 | 203 | 5.0 | 14.0 | 0.00 | 0.01 | 0.00 | 33 | 1000.9 |
| 20260504213017 | 75 | 225 | 5.0 | 14.0 | 0.00 | 0.01 | 0.00 | 33 | 1000.9 |
| 20260504212037 | 75 | 225 | 1.0 | 7.0 | 0.00 | 0.01 | 0.00 | 38 | 1000.9 |
| 20260504211017 | 76 | 203 | 7.0 | 16.0 | 0.00 | 0.01 | 0.00 | 33 | 1001.0 |
| 20260504210037 | 75 | 203 | 5.0 | 10.0 | 0.00 | 0.01 | 0.00 | 38 | 1001.2 |
| 20260504205017 | 75 | 203 | 5.0 | 14.0 | 0.00 | 0.01 | 0.00 | 35 | 1001.2 |
| 20260504204017 | 76 | 225 | 7.0 | 15.0 | 0.00 | 0.01 | 0.00 | 34 | 1001.4 |
| 20260504203017 | 76 | 225 | 7.0 | 14.0 | 0.00 | 0.01 | 0.00 | 34 | 1001.4 |
| 20260504202017 | 76 | 225 | 4.0 | 12.0 | 0.00 | 0.01 | 0.00 | 35 | 1001.5 |
| 20260504201017 | 75 | 203 | 5.0 | 10.0 | 0.00 | 0.01 | 0.00 | 34 | 1001.6 |
| 20260504200016 | 76 | 225 | 4.0 | 13.0 | 0.00 | 0.01 | 0.00 | 36 | 1001.7 |
| 20260504195016 | 75 | 225 | 7.0 | 23.0 | 0.00 | 0.01 | 0.00 | 34 | 1001.9 |
| 20260504194017 | 75 | 225 | 7.0 | 13.0 | 0.00 | 0.01 | 0.00 | 37 | 1002.1 |
| 20260504193017 | 75 | 225 | 5.0 | 11.0 | 0.00 | 0.01 | 0.00 | 35 | 1002.2 |
| 20260504192017 | 75 | 203 | 6.0 | 13.0 | 0.00 | 0.01 | 0.00 | 37 | 1002.4 |
| 20260504191017 | 75 | 225 | 5.0 | 13.0 | 0.00 | 0.01 | 0.00 | 36 | 1002.6 |
| 20260504190017 | 73 | 203 | 5.0 | 12.0 | 0.00 | 0.01 | 0.00 | 40 | 1002.6 |
| 20260504185017 | 74 | 225 | 5.0 | 16.0 | 0.00 | 0.01 | 0.00 | 40 | 1002.7 |
| 20260504184016 | 73 | 248 | 5.0 | 13.0 | 0.00 | 0.01 | 0.00 | 43 | 1002.8 |
| 20260504183017 | 73 | 225 | 6.0 | 16.0 | 0.00 | 0.01 | 0.00 | 40 | 1002.9 |
| 20260504182017 | 73 | 225 | 5.0 | 14.0 | 0.00 | 0.01 | 0.00 | 42 | 1003.0 |
| 20260504181017 | 73 | 248 | 8.0 | 15.0 | 0.00 | 0.01 | 0.00 | 42 | 1003.1 |
| 20260504180017 | 73 | 225 | 6.0 | 15.0 | 0.00 | 0.01 | 0.00 | 43 | 1003.2 |
| 20260504175017 | 72 | 248 | 8.0 | 15.0 | 0.00 | 0.01 | 0.00 | 45 | 1003.3 |
| 20260504174016 | 72 | 225 | 7.0 | 21.0 | 0.00 | 0.01 | 0.00 | 45 | 1003.3 |
| 20260504173017 | 71 | 248 | 7.0 | 15.0 | 0.00 | 0.01 | 0.00 | 44 | 1003.4 |
| 20260504172017 | 71 | 248 | 4.0 | 10.0 | 0.00 | 0.01 | 0.00 | 45 | 1003.5 |
| 20260504171017 | 71 | 225 | 6.0 | 13.0 | 0.00 | 0.01 | 0.00 | 49 | 1003.6 |
| 20260504151016 | 66 | 225 | 6.0 | 13.0 | 0.00 | 0.01 | 0.00 | 53 | 1004.4 |
| 20260504141017 | 63 | 203 | 6.0 | 13.0 | 0.00 | 0.01 | 0.00 | 50 | 1004.4 |
| 20260504081016 | 52 | 203 | 6.0 | 12.0 | 0.00 | 0.01 | 0.00 | 59 | 1005.5 |
| 20260504050016 | 54 | 0.0 | 0.0 | 0.00 | 0.01 | 0.00 | 57 | 1006.8 | |
| 20260504045016 | 55 | 203 | 1.0 | 4.0 | 0.00 | 0.01 | 0.00 | 54 | 1006.9 |
| 20260504044016 | 56 | 0.0 | 1.0 | 0.00 | 0.01 | 0.00 | 52 | 1006.9 | |
| 20260504043016 | 57 | 225 | 3.0 | 12.0 | 0.00 | 0.01 | 0.00 | 52 | 1006.8 |
| 20260504042016 | 56 | 225 | 3.0 | 8.0 | 0.00 | 0.01 | 0.00 | 53 | 1006.8 |
| 20260504041036 | 56 | 0.0 | 0.0 | 0.00 | 0.01 | 0.00 | 53 | 1006.8 | |
| 20260504040036 | 56 | 0.0 | 1.0 | 0.00 | 0.01 | 0.01 | 51 | 1006.9 | |
| 20260504035017 | 56 | 248 | 4.0 | 11.0 | 0.00 | 0.01 | 0.01 | 52 | 1006.7 |
| 20260504034017 | 56 | 225 | 4.0 | 8.0 | 0.00 | 0.01 | 0.01 | 54 | 1006.8 |
| 20260504033017 | 55 | 0.0 | 1.0 | 0.00 | 0.01 | 0.01 | 55 | 1006.8 | |
| 20260504032017 | 56 | 0.0 | 1.0 | 0.00 | 0.01 | 0.01 | 56 | 1006.9 | |
| 20260504031017 | 55 | 0.0 | 1.0 | 0.00 | 0.01 | 0.01 | 57 | 1006.9 | |
| 20260504030017 | 55 | 225 | 1.0 | 5.0 | 0.00 | 0.01 | 0.01 | 57 | 1007.0 |
| 20260504025017 | 55 | 0.0 | 0.0 | 0.00 | 0.01 | 0.01 | 60 | 1007.1 | |
| 20260504024017 | 55 | 225 | 3.0 | 8.0 | 0.00 | 0.01 | 0.01 | 60 | 1007.2 |
| 20260504023017 | 54 | 248 | 2.0 | 10.0 | 0.00 | 0.01 | 0.01 | 65 | 1007.2 |